CZ-6A DEB, 54925

Orbit data source: Space-Track

CZ-6A DEB, 54925 is space debris in SSO originally from a launch on Fri, 11 Nov 2022 UTC launched from the Taiyaun Space Center, China (TSC). Debris objects in space refer to the collection of defunct objects orbiting the Earth. Examples of debris include non-operational satellites, rocket bodies, and fragments generated from explosions, collisions, or faulty payload assembly.

Loading next visibility...
Identifier
54925, 2022-151RN
Orbit
SSO
Country
Flag of CNCN / PRC
Related business
Manufacturer
SAST
Mission
Spacecraft
Bus & Motor
Unknown
Mass
Unknown
Launch date (UTC)
2022-11-11 (3 years ago)
Launch vehicle
Unknown
Launch site
Taiyaun Space Center, China (TSC)
Object type
Payload
Rocket body
Debris
Shape & HBR
Unknown shape, 0.1 m
Radar Cross Section
Small (<0.1 m²)

Expand to show TLE details & history
Last TLE update: 10 hours ago

TLE from 10 hours ago
0 CZ-6A DEB
1 54925U 22151RN  25352.95353363  .00000407  00000-0  23935-3 0  9996
2 54925  98.8356 355.5577 0041444 116.3653 244.1783 14.13116200159233
Epoch: 2025-12-18T22:53Z
TLE epoch observation values (Epoch: 2025-12-18T22:53:05.305Z)
Latitude
-0.00006°
Longitude
-75.51604°
Altitude
864.778 km
Speed
7.413 km/s
True Right ascension
23h 42m 13s
True Declination
0° 00' 00"
Sunlit
Object was in daylight at epoch
Visualization orbit readout
Latitude
Unknown
Longitude
Unknown
Altitude
Unknown
Speed
Unknown
Apparent Right ascension
Unknown
Apparent Declination
Unknown
Sunlit
N/A
Visualization observer readout
Local Sidereal Time
08:02:50
Azimuth
Unknown
Elevation
Unknown
Doppler factor
Unknown
Orbital elements
Apogee altitude
875.841 km
Perigee altitude
815.962 km
Semi-major axis
7,224.038 km
Eccentricity
0.00414
Inclination
98.8356°
RAAN
355.5577°
Arg. of periapsis
116.3653°
True anomaly
243.75177°
Mean anomaly
244.1783°
Eccentric anomaly
243.96494°
Mean motion
3.53487 °/min
Orbital period
101.84 mins
BSTAR
0.00023935
Loading maneuver chart data...
Computing Atmospheric mass density...
Loading historical data...
Loading historical data...
Loading historical data...
Loading historical data...
Loading historical data...
Loading historical data...
Loading historical data...

Documentation

Showing up to 5 results
|